Starlink 6369

operational
NORAD ID: 57374 Int'l Des: 2023-099 Owner: SPXS Country: US Constellation: starlink
LEOCIRCULAR

关于 Starlink 6369

正在加载描述...

实时位置

正在加载3D地球...

即将过境

高度历史

Altitude vs Time

uPlot chart will show altitude changes over time

两行轨道根数

1 57374U 23099AY 25305.97039883 -.00000632 00000-0 -31730-4 0 9992
2 57374 43.0053 196.9730 0001710 268.5056 91.5591 15.02524945127208
Epoch: Nov 1, 2025 • Age: 30 hours

当前状态

高度 559.0 km
速度 7.59 km/s
星下点 20.80°N, 85.09°E
发射日期 Jul 16, 2023
运行时间 2.3 years
类型 internet

技术详情

分类 Payload
质量 305.00 kg
干质量 290.00 kg
总质量 305.00 kg
长度 0.20 m
直径 2.80 m
跨度 9.00 m
形状 Box + pan
制造商 SPXS
平台类型 Starlink
阶段状态 In Orbit
所有者/国家 SPXS/US

大型星座

Loading constellations...